Time_in_sec,gx,gy,gz
1314890262.95928669,0.26742990,-0.18241044,-0.94615415
1314890263.00732708,0.26734102,-0.18228662,-0.94620313
1314890263.05658603,0.26672388,-0.18177992,-0.94647474
1314890263.10732818,0.26664461,-0.18173030,-0.94650660
1314890263.15931916,0.26637914,-0.18154738,-0.94661645
1314890263.20729232,0.26623322,-0.18166935,-0.94663410
1314890263.25927186,0.26599910,-0.18165031,-0.94670357
1314890263.30727053,0.26594863,-0.18185132,-0.94667916
1314890263.35926247,0.26590652,-0.18187420,-0.94668659
1314890263.40726852,0.26592897,-0.18194839,-0.94666603
1314890263.45925045,0.26598897,-0.18201909,-0.94663558
1314890263.50752664,0.26605733,-0.18179383,-0.94665965
1314890263.55625510,0.26564034,-0.18132786,-0.94686610
1314890263.60871315,0.26574791,-0.18118467,-0.94686333
1314890263.65614462,0.26576083,-0.18110967,-0.94687405
1314890263.70883393,0.26559371,-0.18105204,-0.94693196
1314890263.75624681,0.26543738,-0.18102767,-0.94698045
1314890263.80728936,0.26537155,-0.18087597,-0.94702789
1314890263.85932398,0.26515507,-0.18097743,-0.94706914
1314890263.90826344,0.26518717,-0.18081912,-0.94709039
1314890263.95932770,0.26531041,-0.18074912,-0.94706924
1314890264.00737071,0.26540803,-0.18062056,-0.94706641
1314890264.05599475,0.26515504,-0.18052890,-0.94715475
1314890264.10737658,0.26543460,-0.18048811,-0.94708422
1314890264.15598273,0.26533778,-0.18062937,-0.94708442
1314890264.20834517,0.26556126,-0.18038723,-0.94706793
1314890264.25921988,0.26575717,-0.18004553,-0.94707800
1314890264.30867171,0.26597044,-0.18048532,-0.94693441
1314890264.35931325,0.26595963,-0.18041433,-0.94695097
1314890264.40830684,0.26593608,-0.18072560,-0.94689823
1314890264.45634341,0.26606178,-0.18086585,-0.94683614
1314890264.50870848,0.26581199,-0.18089751,-0.94690025
1314890264.55934286,0.26545065,-0.18080978,-0.94701836
1314890264.60839510,0.26548239,-0.18102858,-0.94696766
1314890264.66032267,0.26550892,-0.18097062,-0.94697130
1314890264.70722723,0.26554933,-0.18079992,-0.94699258
1314890264.74785662,0.26555732,-0.18064684,-0.94701955
1314890264.80785441,0.26563058,-0.18049851,-0.94702729
1314890264.85634065,0.26550410,-0.18036666,-0.94708787
1314890264.90784311,0.26566522,-0.18056085,-0.94700569
1314890264.95922303,0.26570117,-0.18057078,-0.94699371
1314890265.00729632,0.26558379,-0.18068435,-0.94700497
1314890265.06023455,0.26543125,-0.18076082,-0.94703315
1314890265.10733080,0.26554723,-0.18065127,-0.94702154
1314890265.15633917,0.26562791,-0.18071342,-0.94698705
1314890265.20833039,0.26582810,-0.18044892,-0.94698132
1314890265.25636601,0.26602896,-0.18045796,-0.94692318
1314890265.30757856,0.26612312,-0.18056707,-0.94687593
1314890265.35557365,0.26630389,-0.18038532,-0.94685974
1314890265.40831947,0.26618132,-0.18012311,-0.94694412
1314890265.45935440,0.26611184,-0.18002650,-0.94698202
1314890265.50568938,0.26606293,-0.17991589,-0.94701678
1314890265.55931091,0.26587620,-0.18024315,-0.94700700
1314890265.60841274,0.26581825,-0.18018795,-0.94703377
1314890265.65935087,0.26560040,-0.18006305,-0.94711864
1314890265.70834970,0.26552007,-0.17986862,-0.94717811
1314890265.75934815,0.26568115,-0.17965555,-0.94717338
1314890265.80825853,0.26497842,-0.17967919,-0.94736573
1314890265.85922122,0.26504910,-0.17966521,-0.94734861
1314890265.90826106,0.26506280,-0.17974097,-0.94733040
1314890265.95933652,0.26520375,-0.17965191,-0.94730785
1314890266.00834632,0.26510222,-0.17941985,-0.94738025
1314890266.05931163,0.26456908,-0.17930836,-0.94755037
1314890266.11128569,0.26451362,-0.17915433,-0.94759499
1314890266.15929580,0.26465667,-0.17918689,-0.94754889
1314890266.21123099,0.26466982,-0.17919365,-0.94754394
1314890266.25930309,0.26459297,-0.17922242,-0.94755996
1314890266.31129026,0.26460325,-0.17938201,-0.94752689
1314890266.36028647,0.26457288,-0.17943485,-0.94752537
1314890266.40828538,0.26460557,-0.17951933,-0.94750024
1314890266.45622182,0.26454445,-0.17941567,-0.94753694
1314890266.50904250,0.26462969,-0.17949701,-0.94749773
1314890266.56017184,0.26443450,-0.17948516,-0.94755447
1314890266.60888481,0.26440516,-0.17949881,-0.94756007
1314890266.66025138,0.26449129,-0.17941146,-0.94755258
1314890266.71131754,0.26443235,-0.17954217,-0.94754427
1314890266.75615835,0.26438522,-0.17956676,-0.94755276
1314890266.80815935,0.26427123,-0.18005579,-0.94749176
1314890266.85615540,0.26453010,-0.18014674,-0.94740223
1314890266.91131878,0.26463733,-0.18024754,-0.94735311
1314890266.95925164,0.26460304,-0.18014835,-0.94738155
1314890267.00832105,0.26439918,-0.18008896,-0.94744976
1314890267.05924273,0.26449328,-0.18038157,-0.94736783
1314890267.11131859,0.26436529,-0.18018709,-0.94744055
1314890267.15931797,0.26430372,-0.18025099,-0.94744558
1314890267.21132660,0.26421551,-0.18026092,-0.94746829
1314890267.26024604,0.26404045,-0.18033596,-0.94750281
1314890267.30834246,0.26396516,-0.18060078,-0.94747335
1314890267.35588169,0.26414123,-0.18061448,-0.94742167
1314890267.40834785,0.26412928,-0.18050264,-0.94744632
1314890267.45934415,0.26430347,-0.18045321,-0.94740715
1314890267.50839114,0.26429549,-0.18071990,-0.94735854
1314890267.55587292,0.26418709,-0.18072478,-0.94738785
1314890267.60834479,0.26403608,-0.18081235,-0.94741324
1314890267.65624833,0.26400743,-0.18069643,-0.94744334
1314890267.70834732,0.26403567,-0.18070533,-0.94743377
1314890267.75934339,0.26411717,-0.18096842,-0.94736083
1314890267.80834150,0.26431283,-0.18092631,-0.94731431
1314890267.86032343,0.26415321,-0.18109483,-0.94732663
1314890267.90834427,0.26426681,-0.18132899,-0.94725015
1314890267.95930910,0.26449099,-0.18134830,-0.94718388
1314890268.00721645,0.26423483,-0.18150027,-0.94722627
1314890268.05562711,0.26426243,-0.18161620,-0.94719635
1314890268.10833168,0.26431554,-0.18184405,-0.94713781
1314890268.16032124,0.26429324,-0.18179622,-0.94715322
1314890268.20833302,0.26407434,-0.18167991,-0.94723659
1314890268.25571465,0.26406682,-0.18150419,-0.94727237
1314890268.30832386,0.26404351,-0.18147233,-0.94728497
1314890268.35933042,0.26398281,-0.18157612,-0.94728200
1314890268.40734839,0.26388593,-0.18135111,-0.94735209
1314890268.45632982,0.26399085,-0.18129597,-0.94733342
1314890268.50834060,0.26392171,-0.18089296,-0.94742972
1314890268.56321907,0.26381319,-0.18099410,-0.94744063
1314890268.60841417,0.26390749,-0.18108270,-0.94739743
1314890268.65920639,0.26382066,-0.18106510,-0.94742498
1314890268.70736456,0.26364438,-0.18086201,-0.94751284
1314890268.74741435,0.26374389,-0.18059140,-0.94753676
1314890268.80834460,0.26375352,-0.18068376,-0.94751647
1314890268.85935736,0.26377626,-0.18052103,-0.94754116
1314890268.90735722,0.26401842,-0.18040107,-0.94749656
1314890268.95936036,0.26394966,-0.18045646,-0.94750517
1314890269.00740457,0.26394220,-0.18030604,-0.94753588
1314890269.05932307,0.26389134,-0.18033111,-0.94754528
1314890269.10730886,0.26392057,-0.18037615,-0.94752856
1314890269.15619850,0.26418689,-0.18025240,-0.94747789
1314890269.20732522,0.26432179,-0.18040264,-0.94741167
1314890269.25618601,0.26423914,-0.18021181,-0.94747105
1314890269.30732322,0.26423192,-0.18033003,-0.94745056
1314890269.35930753,0.26408577,-0.18047349,-0.94746400
1314890269.40729833,0.26390407,-0.18037328,-0.94753370
1314890269.45925879,0.26390850,-0.18043857,-0.94752004
1314890269.51106024,0.26398141,-0.18030236,-0.94752566
1314890269.56326413,0.26382829,-0.18016261,-0.94759489
1314890269.60731268,0.26395599,-0.18023994,-0.94754462
1314890269.65932059,0.26375942,-0.18023928,-0.94759948
1314890269.70825720,0.26404196,-0.18030841,-0.94750764
1314890269.75924897,0.26404756,-0.18010992,-0.94754382
1314890269.80721354,0.26420957,-0.18014411,-0.94749216
1314890269.85604787,0.26457261,-0.17990704,-0.94743590
1314890269.90726900,0.26462518,-0.17988859,-0.94742473
1314890269.95605397,0.26449234,-0.18007059,-0.94742725
1314890270.00795388,0.26480156,-0.18010911,-0.94733354
1314890270.05604267,0.26506935,-0.18027215,-0.94722764
1314890270.10825539,0.26500435,-0.18048687,-0.94720493
1314890270.15932059,0.26494936,-0.18048961,-0.94721979
1314890270.20822263,0.26503701,-0.18034009,-0.94722375
1314890270.25591111,0.26491546,-0.18031327,-0.94726286
1314890270.30723190,0.26541579,-0.18080415,-0.94702921
1314890270.35589886,0.26562204,-0.18083552,-0.94696539
1314890270.40731859,0.26568338,-0.18070545,-0.94697301
1314890270.45580959,0.26559436,-0.18080668,-0.94697866
1314890270.50825906,0.26579953,-0.18068612,-0.94694410
1314890270.55931330,0.26593961,-0.18082602,-0.94687807
1314890270.60839295,0.26601608,-0.18091033,-0.94684048
1314890270.65934420,0.26610604,-0.18115752,-0.94676794
1314890270.70833421,0.26601913,-0.18105561,-0.94681185
1314890270.75576043,0.26615880,-0.18108530,-0.94676692
1314890270.80834675,0.26595129,-0.18090639,-0.94685944
1314890270.85633063,0.26598953,-0.18067190,-0.94689346
1314890270.90732908,0.26617632,-0.18065185,-0.94684480
1314890270.95632839,0.26588936,-0.18065530,-0.94692476
1314890271.00765276,0.26582249,-0.18059299,-0.94695542
1314890271.05633974,0.26593985,-0.18074161,-0.94689412
1314890271.10733056,0.26597840,-0.18071130,-0.94688907
1314890271.15634990,0.26614668,-0.18078090,-0.94682850
1314890271.20832372,0.26627143,-0.18044589,-0.94685733
1314890271.25934291,0.26606965,-0.18056294,-0.94689174
1314890271.30832720,0.26621886,-0.18050993,-0.94685991
1314890271.35561776,0.26604177,-0.18053673,-0.94690457
1314890271.40724897,0.26595792,-0.18061705,-0.94691281
1314890271.45555282,0.26594415,-0.18058502,-0.94692278
1314890271.49961376,0.26591463,-0.18063080,-0.94692234
1314890271.56336904,0.26580513,-0.18064466,-0.94695044
1314890271.60570002,0.26590516,-0.18098019,-0.94685829
1314890271.66024280,0.26591378,-0.18085522,-0.94687975
1314890271.70743918,0.26586408,-0.18081331,-0.94690170
1314890271.75635266,0.26556831,-0.18076775,-0.94699340
1314890271.80735397,0.26573062,-0.18063733,-0.94697275
1314890271.85928440,0.26554695,-0.18076455,-0.94700000
1314890271.90723610,0.26567407,-0.18082659,-0.94695250
1314890271.95937109,0.26560251,-0.18075585,-0.94698608
1314890272.00732636,0.26564997,-0.18086090,-0.94695271
1314890272.05932474,0.26553160,-0.18070170,-0.94701629
1314890272.10825515,0.26574019,-0.18073413,-0.94695160
1314890272.15931106,0.26553991,-0.18082303,-0.94699081
1314890272.20731521,0.26557389,-0.18069783,-0.94700518
1314890272.25926280,0.26577398,-0.18083297,-0.94692324
1314890272.30724764,0.26591178,-0.18136409,-0.94678297
1314890272.36242080,0.26587874,-0.18124963,-0.94681417
1314890272.40721560,0.26605084,-0.18124796,-0.94676614
1314890272.45924807,0.26604034,-0.18112289,-0.94679303
1314890272.49807715,0.26600481,-0.18113080,-0.94680150
1314890272.55925941,0.26594527,-0.18125812,-0.94679386
1314890272.60729241,0.26607516,-0.18134995,-0.94673978
1314890272.65929770,0.26619426,-0.18117096,-0.94674056
1314890272.70728183,0.26603433,-0.18116844,-0.94678600
1314890272.76031446,0.26603490,-0.18105882,-0.94680681
1314890272.80734658,0.26611716,-0.18105259,-0.94678488
1314890272.86024475,0.26615016,-0.18101925,-0.94678198
1314890272.90731812,0.26610239,-0.18105633,-0.94678832
1314890272.96027899,0.26604584,-0.18100690,-0.94681366
1314890273.00878644,0.26591181,-0.18093654,-0.94686476
1314890273.05932140,0.26605208,-0.18056853,-0.94689561
1314890273.10726237,0.26602769,-0.18029578,-0.94695443
1314890273.15932679,0.26597209,-0.18007449,-0.94701216
1314890273.20820045,0.26580807,-0.18022183,-0.94703018
1314890273.25581551,0.26582514,-0.18005629,-0.94705688
1314890273.30721521,0.26600639,-0.18044048,-0.94693286
1314890273.35873914,0.26609883,-0.18049755,-0.94689601
1314890273.40734839,0.26617215,-0.18044493,-0.94688543
1314890273.45628428,0.26618843,-0.18048841,-0.94687257
1314890273.49592948,0.26606391,-0.18063128,-0.94688032
1314890273.55926323,0.26605003,-0.18077667,-0.94685647
1314890273.60839319,0.26588910,-0.18093463,-0.94687150
1314890273.65931964,0.26596827,-0.18082810,-0.94686962
1314890273.70727730,0.26596496,-0.18077957,-0.94687982
1314890273.76030374,0.26605891,-0.18099370,-0.94681251
1314890273.80732727,0.26622967,-0.18142989,-0.94668102
1314890273.85625982,0.26606739,-0.18150634,-0.94671199
1314890273.90733194,0.26618254,-0.18158331,-0.94666486
1314890273.95926404,0.26613095,-0.18165597,-0.94666542
1314890274.00764871,0.26621897,-0.18171873,-0.94662863
1314890274.05566669,0.26632857,-0.18209955,-0.94652461
1314890274.10735273,0.26609135,-0.18235828,-0.94654152
1314890274.15778351,0.26618660,-0.18225502,-0.94653463
1314890274.20731282,0.26609941,-0.18255088,-0.94650213
1314890274.25919342,0.26610718,-0.18252578,-0.94650479
1314890274.30727911,0.26608278,-0.18285690,-0.94644773
1314890274.35932565,0.26580529,-0.18274484,-0.94654734
1314890274.40753555,0.26578606,-0.18262145,-0.94657655
1314890274.45626664,0.26582813,-0.18254797,-0.94657892
1314890274.49950218,0.26570960,-0.18239551,-0.94664158
1314890274.55923176,0.26565398,-0.18246593,-0.94664362
1314890274.60844159,0.26544556,-0.18269695,-0.94665753
1314890274.65945816,0.26520091,-0.18280083,-0.94670604
1314890274.70834255,0.26512143,-0.18276939,-0.94673437
1314890274.76034164,0.26507694,-0.18257462,-0.94678441
1314890274.80834150,0.26511583,-0.18251299,-0.94678540
1314890274.85905910,0.26512716,-0.18239853,-0.94680429
1314890274.90733528,0.26512183,-0.18213693,-0.94685614
1314890274.95927238,0.26528416,-0.18213708,-0.94681065
1314890275.00731778,0.26532659,-0.18194058,-0.94683653
1314890275.05631924,0.26567910,-0.18216396,-0.94669473
1314890275.10723138,0.26543461,-0.18218182,-0.94675987
1314890275.15624619,0.26567092,-0.18238516,-0.94665443
1314890275.21132207,0.26540959,-0.18230321,-0.94674352
1314890275.25630188,0.26521731,-0.18195349,-0.94686467
1314890275.30728292,0.26527764,-0.18233206,-0.94677494
1314890275.35628867,0.26542874,-0.18217795,-0.94676226
1314890275.41123915,0.26522278,-0.18196842,-0.94686027
1314890275.45932841,0.26517345,-0.18197582,-0.94687266
1314890275.49616647,0.26499920,-0.18188969,-0.94693799
1314890275.55625796,0.26508997,-0.18199240,-0.94689285
1314890275.60827565,0.26538703,-0.18214939,-0.94677945
1314890275.65631866,0.26555991,-0.18196167,-0.94676707
1314890275.70725846,0.26566385,-0.18185054,-0.94675926
1314890275.75925994,0.26577005,-0.18166053,-0.94676593
1314890275.80825257,0.26584241,-0.18146219,-0.94678365
1314890275.85604835,0.26596308,-0.18128891,-0.94678296
1314890275.90822101,0.26608424,-0.18138613,-0.94673029
1314890275.95611978,0.26594592,-0.18138915,-0.94676858
1314890276.00731373,0.26586436,-0.18152629,-0.94676520
1314890276.06024504,0.26613437,-0.18157306,-0.94668037
1314890276.10825133,0.26606028,-0.18179775,-0.94665807
1314890276.15613842,0.26626629,-0.18194932,-0.94657103
1314890276.20824885,0.26639310,-0.18169009,-0.94658514
1314890276.25931239,0.26639650,-0.18172027,-0.94657839
1314890276.30824018,0.26619705,-0.18156777,-0.94666376
1314890276.35634255,0.26641002,-0.18156676,-0.94660404
1314890276.40731502,0.26649174,-0.18166469,-0.94656225
1314890276.45640945,0.26673273,-0.18179635,-0.94646909
1314890276.49572706,0.26674863,-0.18174202,-0.94647504
1314890276.55635595,0.26695166,-0.18175549,-0.94641521
1314890276.61131287,0.26729893,-0.18162300,-0.94634263
1314890276.65624595,0.26750868,-0.18139199,-0.94632766
1314890276.70833206,0.26762569,-0.18116666,-0.94633775
1314890276.74760413,0.26785140,-0.18094068,-0.94631712
1314890276.80834889,0.26787121,-0.18088887,-0.94632142
1314890276.86022425,0.26782608,-0.18092768,-0.94632678
1314890276.90734410,0.26786428,-0.18103308,-0.94629580
1314890276.95639729,0.26791316,-0.18096161,-0.94629564
1314890277.00759816,0.26796911,-0.18094092,-0.94628375
1314890277.05623698,0.26793569,-0.18088517,-0.94630387
1314890277.10734487,0.26797389,-0.18089326,-0.94629151
1314890277.15934563,0.26775956,-0.18084640,-0.94636114
1314890277.20835423,0.26761961,-0.18088292,-0.94639374
1314890277.25621796,0.26798309,-0.18094257,-0.94627948
1314890277.30834436,0.26768704,-0.18116323,-0.94632105
1314890277.35935688,0.26752752,-0.18100806,-0.94639585
1314890277.40733790,0.26762006,-0.18088012,-0.94639415
1314890277.45623255,0.26786760,-0.18069035,-0.94636037
1314890277.49953365,0.26774365,-0.18068157,-0.94639712
1314890277.55934262,0.26766990,-0.18085479,-0.94638489
1314890277.60834622,0.26790408,-0.18096115,-0.94629830
1314890277.65697503,0.26786693,-0.18098976,-0.94630334
1314890277.70732975,0.26810324,-0.18085783,-0.94626164
1314890277.76031733,0.26797826,-0.18117578,-0.94623622
1314890277.80720949,0.26800783,-0.18121749,-0.94621986
1314890277.85922527,0.26793543,-0.18141116,-0.94620325
1314890277.90776801,0.26775994,-0.18123192,-0.94628728
1314890277.96033216,0.26768363,-0.18134787,-0.94628665
1314890278.00731349,0.26780758,-0.18123500,-0.94627320
1314890278.05624866,0.26764115,-0.18118064,-0.94633070
1314890278.10021687,0.26740790,-0.18134436,-0.94636528
1314890278.16032219,0.26752729,-0.18134916,-0.94633061
1314890278.20747590,0.26732752,-0.18125420,-0.94640526
1314890278.24834228,0.26728425,-0.18120258,-0.94642736
1314890278.30725980,0.26739095,-0.18137614,-0.94636398
1314890278.36026835,0.26730305,-0.18132135,-0.94639931
1314890278.40025902,0.26737146,-0.18134988,-0.94637452
1314890278.45629215,0.26729396,-0.18115885,-0.94643299
1314890278.50800323,0.26721897,-0.18107145,-0.94647089
1314890278.54815578,0.26682790,-0.18106624,-0.94658221
1314890278.60826874,0.26677986,-0.18118355,-0.94657331
1314890278.66025519,0.26693307,-0.18128221,-0.94651122
1314890278.69613862,0.26709532,-0.18127140,-0.94646752
1314890278.74824572,0.26699347,-0.18132966,-0.94648510
1314890278.80874157,0.26721521,-0.18156906,-0.94637662
1314890278.85687280,0.26734792,-0.18149751,-0.94635287
1314890278.90890861,0.26715652,-0.18103133,-0.94649620
1314890278.95587015,0.26716604,-0.18105460,-0.94648906
1314890278.99586272,0.26708676,-0.18099680,-0.94652249
1314890279.05598736,0.26715197,-0.18107827,-0.94648850
1314890279.10733414,0.26674125,-0.18100342,-0.94661865
1314890279.14799356,0.26691341,-0.18094204,-0.94658186
1314890279.20824862,0.26700449,-0.18101966,-0.94654133
1314890279.25118566,0.26695927,-0.18088740,-0.94657937
1314890279.29597473,0.26702760,-0.18099272,-0.94653996
1314890279.35622835,0.26707835,-0.18092059,-0.94653943
1314890279.40731645,0.26691363,-0.18082208,-0.94660472
1314890279.44733620,0.26674074,-0.18120084,-0.94658102
1314890279.50834584,0.26662572,-0.18107032,-0.94663840
1314890279.55985236,0.26636092,-0.18103130,-0.94672041
1314890279.59583783,0.26612383,-0.18106902,-0.94677987
1314890279.65584183,0.26620705,-0.18111908,-0.94674690
1314890279.70731831,0.26640566,-0.18134858,-0.94664709
1314890279.74772382,0.26636606,-0.18127095,-0.94667310
1314890279.80827284,0.26642828,-0.18136637,-0.94663732
1314890279.85572267,0.26590762,-0.18116356,-0.94682253
1314890279.90822101,0.26587746,-0.18130872,-0.94680321
1314890279.96036673,0.26589073,-0.18142053,-0.94677807
1314890279.99630904,0.26594284,-0.18154259,-0.94674004
1314890280.05634093,0.26593400,-0.18157458,-0.94673638
1314890280.10833621,0.26623846,-0.18144629,-0.94667541
1314890280.14721012,0.26629842,-0.18162179,-0.94662489
1314890280.19934177,0.26652065,-0.18158769,-0.94656889
1314890280.25557375,0.26636990,-0.18174210,-0.94658169
1314890280.30033684,0.26626095,-0.18199837,-0.94656310
1314890280.35633731,0.26629475,-0.18185452,-0.94658124
1314890280.39931583,0.26631260,-0.18175049,-0.94659620
1314890280.44741702,0.26607984,-0.18168477,-0.94667427
1314890280.50836420,0.26605233,-0.18174657,-0.94667013
1314890280.54744840,0.26614961,-0.18173800,-0.94664444
1314890280.60034800,0.26635961,-0.18173353,-0.94658623
1314890280.64823198,0.26638941,-0.18185354,-0.94655479
1314890280.70725250,0.26609741,-0.18163318,-0.94667923
1314890280.74832010,0.26585463,-0.18178508,-0.94671828
1314890280.80819869,0.26575766,-0.18185303,-0.94673246
